Regional Weather Roundup
Issued by NWS Wakefield, VA

Home | Current Version | Previous Version | Graphics & Text | Print | Product List | Glossary On
Versions: 1 2 3 4 5 6 7 8 9 10 11 12 13 14 15 16 17 18 19 20 21 22 23 24 25 26 27 28 29 30 31 32 33 34 35 36 37 38 39 40 41 42 43 44 45 46 47 48 49 50
476
ASUS41 KAKQ 262115
RWRAKQ

REGIONAL WEATHER ROUNDUP
NATIONAL WEATHER SERVICE WAKEFIELD VA
500 PM EDT FRI MAY 26 2017

Note: "fair" indicates few or no clouds below 12,000 feet with no
significant weather and/or obstructions to visibility. * = Denotes
station may not report precipitation (e.g., rain,snow,etc.),
thunder or fog.

VAZ042-051-052>054-056-262200-
NORTHERN VIRGINIA

CITY           SKY/WX    TMP DP  RH WIND       PRES   REMARKS
WASH NATIONAL  PTSUNNY   75  53  46 W18G28    29.79R
DULLES         PTSUNNY   75  52  44 W30G39    29.79R
FORT BELVOIR   PTSUNNY   76  54  45 NW18      29.78R
QUANTICO       CLOUDY    79  55  43 NW13      29.80R
FREDERICKSBRG* MOSUNNY   79  54  42 W9G21     29.79S
STAFFORD*      MOSUNNY   77  52  42 NW17G25   29.84S
WARRENTON      SUNNY     79  49  35 W12G18    29.79S
CULPEPER*      SUNNY     78  53  43 W14G21    29.82R
MANASSAS*      MOSUNNY   77  54  44 NW23G29   29.79S
LEESBURG*      PTSUNNY   73  59  60 W15G21    29.81S
WINCHESTER     PTSUNNY   70  52  52 W14G26    29.82R
FRONT ROYAL*   MOCLDY    73  54  49 W13G24    29.81S
LURAY*         MOCLDY    75  52  43 W15G25    29.84S
$$

VAZ048-049-060>072-079>083-262200-
CENTRAL AND SOUTH CENTRAL VIRGINIA

CITY           SKY/WX    TMP DP  RH WIND       PRES   REMARKS
RICHMOND       PTSUNNY   80  55  42 W17       29.81S
CHESTERFIELD*  NOT AVBL
PETERSBURG*    PTSUNNY   79  51  37 W12G20    29.84S
HANOVER        MOSUNNY   80  50  34 W13G25    29.82S
TAPPAHANNOCK*  PTSUNNY   78  48  35 W8        29.81S
QUINTON*       MOCLDY    78  56  46 W6        29.80S
CHARLOTTSVILLE SUNNY     79  52  38 W7        29.82S
GORDONSVILLE*  PTCLDY    78  52  40 W7        29.81S
ORANGE*        CLOUDY    77  52  41 W9G17     29.81S
LOUISA*        PTSUNNY   82  57  42 W8G16     29.81S
BUMPASS*       FAIR      78  55  45 W7        29.81S
FARMVILLE*     SUNNY     80  40  24 SW10G18   29.83S
CREWE*         FAIR      79  44  29 W9G16     29.84S
FORT PICKETT*  FAIR      79  44  29 W14G25    29.85S
CHASE CITY*    FAIR      78  49  36 W3G18     29.86F
CLARKSVILLE*   FAIR      79  55  44 W8G16     29.87S
SOUTH HILL*    PTSUNNY   80  58  47 W8        29.92S
LAWRENCEVILLE* MOCLDY    79  53  40 W7        29.86S
EMPORIA*       PTSUNNY   77  55  47 SW5       29.86S
$$

VAZ088>098-262200-
SOUTHEAST VIRGINIA

CITY           SKY/WX    TMP DP  RH WIND       PRES   REMARKS
NORFOLK        MOSUNNY   80  55  42 W12G17    29.81R
VIRGINIA BEACH PTSUNNY   79  54  41 NW16G23   29.80R
NORFOLK NAVAL  NOT AVBL
WEST POINT*    MOSUNNY   80  55  42 W9        29.81S
SALUDA*        FAIR      77  56  47 W7G20     29.80R
NEWPORT NEWS   MOSUNNY   80  55  42 W14G22    29.81R
LANGLEY AFB    MOSUNNY   79  58  49 W13       29.81R
FORT EUSTIS    MOSUNNY   82  57  43 W13G18    29.80R
WILLIAMSBURG*  MOSUNNY   82  57  42 W15       29.82S
HR EXEC AP*    FAIR      79  57  47 NW12      29.80R
FRANKLIN*      MOSUNNY   79  54  42 W12G25    29.84S
US460-WAKEFLD  MOSUNNY   79  55  43 W10G21    29.83R
$$

VAZ020-022-025-037-045-262200-
WEST CENTRAL AND SOUTHWEST VIRGINIA

CITY           SKY/WX    TMP DP  RH WIND       PRES   REMARKS
STAUNTON*      SUNNY     74  51  44 W12G20    29.87F
WAYNESBORO*    CLEAR     74  53  48 W6G20     29.86F
HOT SPRINGS VA PTSUNNY   63  37  39 W21G28    29.97S
LYNCHBURG      SUNNY     78  52  40 W10       29.88S
DANVILLE       MOSUNNY   80  58  46 W12       29.88F
SOUTH BOSTON*  FAIR      80  49  34 W9G22     29.87F
MARTINSVILLE   SUNNY     79  53  39 W8        29.92S
ROANOKE        MOSUNNY   78  51  38 NW15      29.91F
BLACKSBURG     SUNNY     72  51  46 NW12G18   29.98S
DUBLIN*        SUNNY     74  44  33 W12G20    29.96F
MARION*        MOSUNNY   70  53  55 CALM      30.00F
HILLSVILLE*    SUNNY     70  46  40 W3G20     29.97F
RICHLANDS*     FAIR      70  55  57 SW7       29.99F
WISE*          SUNNY     72  50  46 CALM      30.00F
ABINGDON*      SUNNY     74  55  50 W12G17    29.99F
$$

MDZ021>025-VAZ099-100-262200-
SOUTHERN MARYLAND AND THE DELMARVA PENINSULA

CITY           SKY/WX    TMP DP  RH WIND       PRES   REMARKS
PATUXENT RIVER PTSUNNY   77  57  50 W18       29.78R
BAY BRIDGE APT PTSUNNY   73  57  56 NW14G20   29.76S
LEONARDTOWN    CLOUDY    73  54  49 W9        29.80S
DOVER          MOSUNNY   74  63  69 W21G29    29.72R
GEORGETOWN     PTSUNNY   76  56  49 W10       29.75S
EASTON         PTSUNNY   75  55  50 NW12G20   29.80R
CAMBRIDGE      CLOUDY    73  55  53 W10G22    29.77R
SALISBURY      CLOUDY    76  56  49 W13G24    29.76R
OCEAN CITY     CLOUDY    74  59  59 W7        29.76R
WALLOPS ISLAND PTSUNNY   77  57  50 NW18G28   29.77R
ACCOMACK*      PTSUNNY   75   7   7 NW7       29.79R
$$

NCZ012>017-030>032-262200-
NORTH CENTRAL AND EASTERN NORTH CAROLINA

CITY           SKY/WX    TMP DP  RH WIND       PRES   REMARKS
ROANOKE RAPIDS FAIR      79  55  44 W12G17    29.87S
RALEIGH        MOSUNNY   80  57  45 W8G17     29.90F
ELIZABETH CITY MOSUNNY   80  58  46 W16       29.83R
AHOSKIE*       NOT AVBL
EDENTON*       MOSUNNY   81  56  42 NW10G20   29.86R
CURRITUCK*     MOSUNNY   80  56  43 W12G23    29.84R
KILL DEVIL HLS SUNNY     78  55  44 W9G20     29.83R
MANTEO         MOSUNNY   78  56  45 W10G20    29.85R
CAPE HATTERAS  SUNNY     80  60  50 W10G20    29.86S
TARBORO*       NOT AVBL
GOLDSBORO      MOSUNNY   82  54  37 W14       29.87S
WASHINGTON     MOSUNNY   80  56  44 NW8       29.87S
GREENVILLE     MOSUNNY   81  55  41 W7        29.90S
NEW BERN       SUNNY     82  56  40 W12G21    29.88S
WILMINGTON     SUNNY     84  55  36 W16       29.89S
$$

VAZ048-262200-
ELSEWHERE

CITY           SKY/WX    TMP DP  RH WIND       PRES   REMARKS
HARRISBURG PA  CLOUDY    70  53  54 NW18G25   29.75R
BALTIMORE      PTSUNNY   74  57  55 W21G31    29.76R
ANNAPOLIS      CLOUDY    75  56  51 NW10G21   29.76R
ANDREWS AFB    PTSUNNY   73  53  49 NW13G26   29.77R
PHILADELPHIA   PTSUNNY   74  54  49 W21G30    29.70R
HENDERSON NC   SUNNY     75  53  45 W8G17     29.89S
GREENSBORO     MOSUNNY   80  54  40 W12       29.90F
ROCKY MOUNT    SUNNY     80  56  43 NW14      29.88S
$$

VAZ100-262200-
MARINE

STATION/POSITION TIME  TEMP    WIND        PRES    WAVE   SWELL
                       AIR SEA DIR/SP/G            HT/PER HT/PER
                 (UTC) (F)     (DEG/KT/KT) (MB)    (FT/S) (FT/S)
CAPE MAY NJ      2048   69 65  290/ 15/ 19 1006.3R
LEWES DE         2048   72 63  300/ 19/ 25 1006.7R
15NM E FENWICK I 2050   65 59  280/ 12/ 14 1007.5R   4/ 8   3/ 8
WACHAPREAGUE VA  2048   77 72  250/  3/  8 1008.2R
THOMAS POINT MD  2100   73 65  300/ 13/ 14   N/A
GOOSES REEF MD   2100   72 63  290/ 10/ 14 1009.0    2/ 2
COVE POINT MD    2048   74     310/ 11/ 15 1009.0R
SOLOMONS ISLAND  2048   75 67  290/ 10/ 15   N/A
BISHOPS HEAD MD  2048   73 72  280/ 19/ 22 1008.9R
PINEY POINT MD   2042          320/ 12/ 12   N/A
POTOMAC MD       2100   72 68  310/ 14/ 17 1007.8    2/ 3
CAMBRIDGE MD     2042   75 69                N/A
LEWISETTA VA     2048   76 68  320/ 11/ 15 1008.6R
RAPPAHANNOCK LGT 2042          290/ 17/ 18 1009.3R
STINGRAY PT      2050   74     310/ 10/ 12 1009.2S
YORK RVR RNG VA  2048   75     280/ 14/ 16 1008.6R
YORKTOWN VA      2048   77 69  260/ 14/ 22 1009.0R
JAMESTOWN VA     2100   77 71  280/ 12/ 17   N/A     0
DOMINION TERM VA 2048   76     300/ 13/ 17 1009.6R
KIPTOPEKE VA     2048      69  290/ 15/ 17   N/A
CHES BAY BRIDGE  2048   74 67  280/ 16/ 18 1009.2R
CAPE HENRY VA    2048   78     280/ 14/ 18   N/A
WILLOUBY STN VA  2048   76     280/ 15/ 16 1009.4R
S CRANEY ISL VA  2048   78     290/ 12/ 16 1009.3R
CAPE HENRY BUOY  2042      64                N/A     2/ 7
1ST LANDING BUOY 2100   74 67              1009.4    1/ 3
CAPE CHARLES BUO 2051      66                N/A     2/ 9
64NM E OF VA BCH 2050   65 63  230/  6/  6 1010.2R   5/ 8   5/ 8
DUCK PIER NC     2048   77 62  270/ 16/ 19 1009.6R
44100 DUCK FRF   2035      65                N/A     2/ 8
44056 DUCK FRF   2030      63                N/A     2/ 8
OREGON INLET NC  2048          270/ 11/ 16   N/A
HATTERAS NC      2048   76 72  270/ 13/ 15 1011.0S
DIAMOND SHLS NC  2050   75 80  250/ 17/ 21 1011.1S   6/ 8   2/ 8
CAPE LOOKOUT NC  2100   76     220/ 12/ 17 1011.5S
$$




USA.gov is the U.S. government's official web portal to all federal, state and local government web resources and services.